This is the latest recevied weather packets stored in our database for station/object K5OBH. If no packets are shown the sender has not sent any weather packets the latest 10 day(s).
| Time | Temp. | Humidity | Pressure | Rain* | Wind** | Luminosity | Snow |
|---|---|---|---|---|---|---|---|
| 1777848120 | 27.22° C | 29% | 1012.7 hPa | 0 mm | - | 284 W/m² | - |
| 1777847818 | 27.78° C | 29% | 1012.4 hPa | 0 mm | - | 298 W/m² | - |
| 1777847515 | 27.22° C | 30% | 1012.6 hPa | 0 mm | - | 313 W/m² | - |
| 1777847212 | 27.78° C | 30% | 1012.8 hPa | 0 mm | - | 327 W/m² | - |
| 1777846909 | 27.22° C | 30% | 1012.6 hPa | 0 mm | - | 342 W/m² | - |
| 1777846608 | 27.78° C | 29% | 1012.8 hPa | 0 mm | - | 358 W/m² | - |
| 1777846305 | 27.78° C | 29% | 1012.8 hPa | 0 mm | - | 372 W/m² | - |
| 1777846001 | 27.78° C | 29% | 1012.9 hPa | 0 mm | - | 391 W/m² | - |
| 1777845698 | 27.78° C | 28% | 1013.2 hPa | 0 mm | - | 404 W/m² | - |
| 1777845395 | 28.33° C | 29% | 1012.9 hPa | 0 mm | - | 422 W/m² | - |
| 1777845092 | 27.78° C | 28% | 1013 hPa | 0 mm | - | 448 W/m² | - |
| 1777844791 | 27.22° C | 29% | 1012.9 hPa | 0 mm | - | 329 W/m² | - |
| 1777844486 | 27.78° C | 29% | 1013.1 hPa | 0 mm | - | 207 W/m² | - |
| 1777844186 | 27.78° C | 28% | 1013 hPa | 0 mm | - | 366 W/m² | - |
| 1777843882 | 28.33° C | 29% | 1013.1 hPa | 0 mm | - | 456 W/m² | - |
| 1777843579 | 27.78° C | 29% | 1013.1 hPa | 0 mm | - | 498 W/m² | - |
| 1777843277 | 27.78° C | 31% | 1013.3 hPa | 0 mm | - | 514 W/m² | - |
| 1777842974 | 27.78° C | 29% | 1013.3 hPa | 0 mm | - | 524 W/m² | - |
| 1777842669 | 27.78° C | 29% | 1013.3 hPa | 0 mm | - | 539 W/m² | - |
| 1777842366 | 27.78° C | 30% | 1013.6 hPa | 0 mm | - | 552 W/m² | - |
| 1777842062 | 27.78° C | 30% | 1013.5 hPa | 0 mm | - | 562 W/m² | - |
| 1777841759 | 27.78° C | 31% | 1013.7 hPa | 0 mm | - | 570 W/m² | - |
| 1777841455 | 27.78° C | 32% | 1013.8 hPa | 0 mm | - | 580 W/m² | - |
| 1777841152 | 27.78° C | 31% | 1013.8 hPa | 0 mm | - | 593 W/m² | - |
| 1777840849 | 27.78° C | 31% | 1014.3 hPa | 0 mm | - | 605 W/m² | - |
* Rain latest hour (hover to see other rain measurements)
** Current wind speed in m/s (hover to see current wind gust speed)